CW7959 Weather Reports


Display with metric or nautical units.
time (UTC)temp
F
wind
direction
speed
MPH
gust
MPH
rain 1hr
in
rain 24hr
in
rain mn
in
humidity
%
barometer
mb
20260509092905 49 39 3.0 8.0 0.00 0.03 0.00 62 1024.4
20260509092405 49 5 4.0 7.0 0.00 0.03 0.00 63 1024.4
20260509091405 49 32 4.0 8.0 0.00 0.03 0.00 64 1024.4
20260509090905 48 9 3.0 9.0 0.00 0.03 0.00 64 1024.4
20260509090405 48 5 4.0 8.0 0.00 0.03 0.00 65 1024.6
20260509085905 48 349 0.0 7.0 0.00 0.03 0.00 68 1024.5
20260509085405 48 31 3.0 8.0 0.00 0.03 0.00 67 1024.5
20260509084906 47 26 2.0 7.0 0.00 0.03 0.00 70 1024.4
20260509084406 47 359 3.0 8.0 0.00 0.03 0.00 70 1024.5
20260509083906 47 45 3.0 9.0 0.00 0.03 0.00 70 1024.5
20260509083406 46 358 4.0 9.0 0.00 0.03 0.00 72 1024.4
20260509082905 46 355 3.0 7.0 0.00 0.03 0.00 74 1024.3
20260509082405 46 1 3.0 8.0 0.00 0.03 0.00 73 1024.3
20260509081907 45 13 3.0 10.0 0.00 0.03 0.00 75 1024.3
20260509081406 45 25 3.0 8.0 0.00 0.03 0.00 76 1024.3
20260509080905 45 354 4.0 12.0 0.00 0.03 0.00 78 1024.2
20260509075904 44 341 5.0 9.0 0.00 0.03 0.00 82 1024.3
20260509075404 43 17 2.0 6.0 0.00 0.03 0.00 85 1024.3
20260509074905 43 40 3.0 7.0 0.00 0.03 0.00 86 1024.4
20260509074406 42 30 3.0 8.0 0.00 0.03 0.00 89 1024.4
20260509073905 42 203 2.0 6.0 0.00 0.03 0.00 91 1024.3
20260509073404 41 196 1.0 6.0 0.00 0.03 0.00 92 1024.3
20260509072905 40 196 1.0 3.0 0.00 0.03 0.00 94 1024.3
20260509071904 39 196 1.0 3.0 0.00 0.03 0.00 95 1024.4
20260509071405 39 196 1.0 3.0 0.00 0.03 0.00 95 1024.3
20260509070904 38 198 0.0 2.0 0.00 0.03 0.00 95 1024.3
20260509070405 38 198 0.0 3.0 0.00 0.03 0.00 95 1024.3
20260509065906 37 198 1.0 3.0 0.00 0.03 0.00 95 1024.3
20260509065405 37 198 0.0 2.0 0.00 0.03 0.00 95 1024.3
20260509064405 36 198 0.0 0.0 0.00 0.03 0.00 95 1024.4
20260509063905 35 198 0.0 0.0 0.00 0.03 0.00 95 1024.3
20260509063406 35 198 0.0 0.0 0.00 0.03 0.00 95 1024.4
20260509062905 34 198 0.0 0.0 0.00 0.03 0.00 95 1024.4
20260509062406 34 198 0.0 0.0 0.00 0.03 0.00 95 1024.4
20260509061906 33 198 0.0 0.0 0.00 0.04 0.00 94 1024.3
20260509061406 33 198 0.0 0.0 0.00 0.04 0.00 94 1024.3
20260509060905 33 198 0.0 0.0 0.00 0.04 0.00 94 1024.2
20260509060405 33 198 0.0 0.0 0.00 0.04 0.00 94 1024.2
20260509055904 32 198 0.0 0.0 0.00 0.04 0.00 94 1024.2
20260509055405 32 198 0.0 0.0 0.00 0.04 0.00 94 1024.1
20260509054905 32 198 0.0 0.0 0.00 0.04 0.00 94 1024.0
20260509053905 32 198 0.0 1.0 0.00 0.04 0.00 94 1023.9
20260509053404 32 236 0.0 0.0 0.00 0.04 0.00 94 1023.9
20260509052904 32 236 0.0 0.0 0.00 0.04 0.00 94 1023.9
20260509052405 32 236 0.0 0.0 0.00 0.04 0.00 93 1023.8
20260509051906 32 236 0.0 0.0 0.00 0.04 0.00 93 1023.8
20260509051405 31 236 0.0 0.0 0.00 0.04 0.00 93 1023.8
20260509050904 31 236 0.0 0.0 0.00 0.04 0.00 93 1023.7
20260509050406 31 236 0.0 0.0 0.00 0.04 0.00 93 1023.7
20260509045904 31 236 0.0 0.0 0.00 0.04 0.00 93 1023.6
20260509043904 31 236 0.0 0.0 0.00 0.04 0.00 92 1023.6
20260509043404 31 236 0.0 0.0 0.00 0.04 0.00 92 1023.6
20260509042906 31 236 0.0 0.0 0.00 0.04 0.00 92 1023.5
20260509042405 32 236 0.0 0.0 0.00 0.04 0.00 92 1023.4
20260509041405 32 236 0.0 0.0 0.00 0.04 0.00 92 1023.3
20260509040905 32 236 0.0 0.0 0.00 0.04 0.00 92 1023.3
20260509040404 32 236 0.0 0.0 0.00 0.04 0.00 92 1023.3
20260509035906 32 236 0.0 0.0 0.00 0.04 0.00 92 1023.3
20260509035405 32 236 0.0 0.0 0.00 0.04 0.00 92 1023.2
20260509034905 32 236 0.0 0.0 0.00 0.04 0.00 92 1023.3
20260509034404 32 236 0.0 0.0 0.00 0.04 0.00 92 1023.3
20260509033905 32 236 0.0 1.0 0.00 0.04 0.00 92 1023.3
20260509033405 32 123 0.0 0.0 0.00 0.04 0.00 92 1023.3
20260509032404 33 34 0.0 0.0 0.00 0.04 0.00 92 1023.0
20260509031905 33 34 0.0 0.0 0.00 0.04 0.00 91 1023.0
20260509031405 33 34 0.0 0.0 0.00 0.04 0.00 91 1022.9
20260509030905 33 34 0.0 0.0 0.00 0.04 0.00 91 1022.9
20260509030406 33 34 0.0 0.0 0.00 0.04 0.00 91 1022.9
20260509025905 33 34 0.0 0.0 0.00 0.04 0.00 91 1022.8
20260509024905 33 34 0.0 0.0 0.00 0.04 0.00 91 1022.9
20260509024405 33 34 0.0 0.0 0.00 0.04 0.00 91 1022.8
20260509023906 33 34 0.0 0.0 0.00 0.04 0.00 91 1022.7
20260509023404 34 34 0.0 0.0 0.00 0.04 0.00 90 1022.7
20260509022905 34 34 0.0 0.0 0.00 0.04 0.00 91 1022.7
20260509021405 34 34 0.0 0.0 0.00 0.04 0.00 91 1022.8
20260509020904 34 34 0.0 0.0 0.00 0.04 0.00 91 1022.9
20260509020406 34 34 0.0 0.0 0.00 0.04 0.00 91 1022.7
20260509015906 35 34 0.0 0.0 0.00 0.04 0.00 90 1022.8
20260509015405 35 34 0.0 0.0 0.00 0.04 0.00 90 1022.8
20260509014905 35 34 0.0 0.0 0.00 0.04 0.00 91 1022.8
20260509014405 35 34 0.0 0.0 0.00 0.04 0.00 91 1022.8
20260509013405 35 34 0.0 0.0 0.00 0.04 0.00 90 1022.7
20260509012405 35 34 0.0 0.0 0.00 0.04 0.00 90 1022.6
20260509011905 35 34 0.0 0.0 0.00 0.04 0.00 91 1022.6
20260509010905 36 34 0.0 0.0 0.00 0.04 0.00 90 1022.5
20260509010406 36 34 0.0 0.0 0.00 0.04 0.00 90 1022.4
20260509005905 36 34 0.0 0.0 0.00 0.04 0.00 90 1022.4
20260509005405 36 34 0.0 0.0 0.00 0.04 0.00 90 1022.4
20260509004905 36 34 0.0 0.0 0.00 0.04 0.00 90 1022.3
20260509004405 36 34 0.0 3.0 0.00 0.04 0.00 90 1022.2
20260509003905 36 34 0.0 0.0 0.00 0.04 0.00 90 1022.2
20260509003405 36 34 0.0 0.0 0.00 0.04 0.00 89 1022.2
20260509002906 37 34 0.0 0.0 0.00 0.04 0.00 89 1022.2
20260509002405 37 34 0.0 0.0 0.00 0.04 0.00 89 1022.2
20260509001905 37 34 0.0 0.0 0.00 0.04 0.00 88 1022.1
20260509001405 37 34 0.0 0.0 0.00 0.04 0.00 89 1022.1
20260509000905 37 34 0.0 0.0 0.00 0.04 0.00 89 1022.1
20260509000405 37 34 0.0 0.0 0.00 0.04 0.00 89 1022.0
20260508235905 37 34 0.0 0.0 0.00 0.04 0.00 88 1022.1
20260508235406 37 34 0.0 0.0 0.00 0.04 0.00 88 1022.0
20260508234906 38 34 0.0 0.0 0.00 0.04 0.00 88 1022.0
20260508233906 38 34 0.0 0.0 0.00 0.04 0.00 87 1021.9
20260508233406 38 34 0.0 0.0 0.00 0.04 0.00 87 1022.0
20260508232906 38 34 0.0 0.0 0.00 0.04 0.00 87 1022.0
20260508232406 38 34 0.0 0.0 0.00 0.04 0.00 86 1022.0
20260508231906 39 34 0.0 0.0 0.00 0.04 0.00 86 1022.0
20260508231404 39 34 0.0 0.0 0.00 0.04 0.00 86 1021.9
20260508230906 39 34 0.0 0.0 0.00 0.04 0.00 85 1021.8
20260508230406 40 34 0.0 0.0 0.00 0.04 0.00 86 1021.8
20260508225902 40 34 0.0 0.0 0.00 0.04 0.04 85 1021.7
20260508224903 40 34 0.0 0.0 0.00 0.05 0.04 85 1021.6
20260508223904 41 34 0.0 0.0 0.00 0.05 0.04 85 1021.7
20260508223402 41 34 0.0 0.0 0.00 0.05 0.04 85 1021.7
20260508222902 41 34 0.0 0.0 0.00 0.05 0.04 85 1021.7
20260508222403 41 34 0.0 0.0 0.00 0.05 0.04 84 1021.5
20260508221903 42 34 0.0 0.0 0.00 0.05 0.04 84 1021.4
20260508220902 42 34 0.0 0.0 0.00 0.05 0.04 84 1021.3
20260508220403 42 34 0.0 1.0 0.00 0.06 0.04 83 1021.2
20260508215902 42 34 1.0 3.0 0.00 0.06 0.04 83 1021.2
20260508215403 42 33 0.0 0.0 0.00 0.07 0.04 83 1021.2
20260508214903 43 33 0.0 2.0 0.00 0.08 0.04 83 1021.2
20260508214403 43 33 1.0 2.0 0.00 0.08 0.04 82 1021.1
20260508213904 43 33 0.0 0.0 0.00 0.08 0.04 82 1021.0
20260508213402 43 33 0.0 0.0 0.00 0.09 0.04 81 1021.0
20260508212902 44 33 0.0 0.0 0.00 0.09 0.04 81 1021.0
20260508212403 44 33 0.0 0.0 0.00 0.09 0.04 81 1020.9
20260508211902 44 33 0.0 0.0 0.00 0.09 0.04 81 1020.9
20260508211403 45 33 0.0 0.0 0.00 0.09 0.04 80 1020.9
20260508210902 45 33 0.0 0.0 0.00 0.09 0.04 80 1020.8
20260508210403 45 33 0.0 0.0 0.00 0.09 0.04 79 1020.8
20260508205903 45 33 0.0 0.0 0.00 0.09 0.04 79 1020.7
20260508205403 45 33 0.0 0.0 0.00 0.09 0.04 78 1020.8
20260508204903 46 33 0.0 0.0 0.00 0.09 0.04 78 1020.7
20260508204403 46 33 0.0 0.0 0.00 0.09 0.04 77 1020.6
20260508203903 46 33 0.0 0.0 0.00 0.09 0.04 76 1020.5
20260508203402 47 33 0.0 0.0 0.00 0.09 0.04 75 1020.4
20260508202902 47 33 0.0 0.0 0.00 0.09 0.04 74 1020.3
20260508202403 48 33 0.0 0.0 0.00 0.09 0.04 73 1020.2
20260508201903 48 33 0.0 1.0 0.00 0.09 0.04 72 1020.2
20260508200902 49 33 0.0 0.0 0.00 0.09 0.04 70 1020.0
20260508200404 50 33 0.0 0.0 0.00 0.09 0.04 69 1019.9
20260508195402 50 33 0.0 0.0 0.00 0.09 0.04 66 1019.9
20260508194904 51 33 0.0 0.0 0.00 0.09 0.04 65 1019.8
20260508194404 51 33 0.0 1.0 0.00 0.09 0.04 64 1019.7
20260508193903 52 33 0.0 0.0 0.00 0.09 0.04 63 1019.6
20260508193402 52 33 0.0 1.0 0.00 0.09 0.04 61 1019.5
20260508192902 52 33 0.0 3.0 0.00 0.09 0.04 60 1019.4
20260508192402 53 34 0.0 3.0 0.00 0.09 0.04 59 1019.4
20260508190903 54 327 2.0 6.0 0.00 0.09 0.04 57 1019.1
20260508190402 54 327 0.0 2.0 0.00 0.09 0.04 56 1019.1
20260508185904 54 327 0.0 1.0 0.00 0.09 0.04 55 1019.0
20260508184902 55 327 1.0 2.0 0.00 0.09 0.04 55 1018.8
20260508183902 55 327 0.0 0.0 0.00 0.09 0.04 53 1018.7
20260508182902 55 327 1.0 3.0 0.00 0.09 0.04 53 1018.7
20260508182402 56 327 0.0 3.0 0.00 0.09 0.04 53 1018.6
20260508181903 56 327 2.0 6.0 0.00 0.09 0.04 53 1018.6
20260508180903 56 325 0.0 6.0 0.00 0.10 0.04 53 1018.4
20260508175903 57 317 1.0 6.0 0.00 0.10 0.04 55 1018.4
20260508175403 57 319 1.0 6.0 0.00 0.10 0.04 54 1018.2
20260508174903 57 302 2.0 5.0 0.00 0.10 0.04 54 1018.2
20260508174404 57 301 1.0 3.0 0.00 0.10 0.04 55 1018.1
20260508173903 57 301 1.0 3.0 0.00 0.10 0.04 56 1018.1
20260508173403 57 301 1.0 7.0 0.00 0.10 0.04 56 1018.1
20260508172904 57 300 1.0 5.0 0.00 0.10 0.04 55 1018.1
20260508172404 57 299 3.0 6.0 0.00 0.10 0.04 54 1018.0
20260508171904 57 295 1.0 3.0 0.00 0.10 0.04 54 1017.9
20260508171405 57 295 2.0 9.0 0.00 0.10 0.04 53 1017.9
20260508170903 58 271 2.0 7.0 0.00 0.10 0.04 55 1017.8
20260508165903 57 263 2.0 8.0 0.00 0.10 0.04 54 1017.8
20260508165405 58 254 2.0 7.0 0.00 0.10 0.04 53 1017.7
20260508164904 58 257 2.0 9.0 0.00 0.10 0.04 54 1017.7
20260508164404 57 262 1.0 3.0 0.00 0.10 0.04 56 1017.6
20260508163903 57 263 2.0 6.0 0.00 0.10 0.04 56 1017.6
20260508163402 57 268 3.0 8.0 0.00 0.10 0.04 55 1017.5
20260508162902 57 271 3.0 9.0 0.00 0.10 0.04 55 1017.5
20260508162404 57 265 3.0 6.0 0.00 0.10 0.04 56 1017.5
20260508161904 57 265 2.0 8.0 0.00 0.10 0.04 55 1017.5
20260508161402 57 211 1.0 6.0 0.00 0.10 0.04 56 1017.5
20260508160902 57 243 5.0 9.0 0.00 0.10 0.04 56 1017.5
20260508160403 57 277 3.0 10.0 0.00 0.10 0.04 55 1017.5
20260508155904 57 212 3.0 10.0 0.00 0.10 0.04 55 1017.5
20260508155402 57 272 3.0 10.0 0.00 0.10 0.04 55 1017.4
20260508154902 58 281 4.0 12.0 0.00 0.10 0.04 56 1017.4
20260508154404 57 281 3.0 6.0 0.00 0.10 0.04 55 1017.4
20260508153903 57 284 2.0 8.0 0.00 0.10 0.04 57 1017.4
20260508153404 57 267 2.0 7.0 0.00 0.10 0.04 57 1017.3
20260508152902 57 282 2.0 8.0 0.00 0.10 0.04 58 1017.1
20260508152403 57 256 3.0 8.0 0.00 0.10 0.04 58 1017.1
20260508151403 57 277 2.0 7.0 0.00 0.10 0.04 60 1017.2
20260508150902 56 282 2.0 8.0 0.00 0.10 0.04 61 1017.1
20260508150403 56 286 3.0 10.0 0.00 0.10 0.04 60 1017.0
20260508145902 57 292 2.0 8.0 0.00 0.10 0.04 58 1017.1
20260508145404 57 254 3.0 10.0 0.00 0.10 0.04 60 1017.1
20260508144903 56 242 2.0 6.0 0.00 0.10 0.04 63 1017.0
20260508144402 56 276 3.0 8.0 0.00 0.10 0.04 64 1017.0
20260508143403 56 242 2.0 7.0 0.00 0.10 0.04 61 1016.9
20260508142903 57 234 2.0 6.0 0.00 0.10 0.04 61 1016.8
20260508142402 57 234 2.0 8.0 0.00 0.10 0.04 61 1016.9
20260508141902 57 263 5.0 7.0 0.00 0.10 0.04 61 1016.9
20260508140902 57 323 3.0 10.0 0.00 0.10 0.04 61 1016.9
20260508140403 57 262 2.0 7.0 0.00 0.10 0.04 63 1016.9
20260508135904 57 275 2.0 9.0 0.00 0.10 0.04 65 1016.7
20260508135404 57 316 3.0 9.0 0.00 0.10 0.04 64 1016.7
20260508133902 55 297 3.0 6.0 0.00 0.10 0.04 68 1016.7
20260508133404 55 277 3.0 8.0 0.00 0.10 0.04 66 1016.7
20260508132903 55 313 3.0 10.0 0.00 0.10 0.04 65 1016.5
20260508132402 55 291 1.0 6.0 0.00 0.10 0.04 65 1016.6
20260508131903 55 313 4.0 9.0 0.00 0.10 0.04 66 1016.5
20260508131404 56 264 3.0 8.0 0.00 0.10 0.04 66 1016.5
20260508130904 56 220 4.0 9.0 0.00 0.10 0.04 67 1016.5
20260508130403 56 227 1.0 3.0 0.00 0.10 0.04 68 1016.5
20260508125903 56 227 3.0 7.0 0.00 0.10 0.04 65 1016.3
20260508125404 56 211 4.0 7.0 0.00 0.10 0.04 67 1016.3
20260508124403 56 214 4.0 8.0 0.00 0.10 0.04 71 1016.1
20260508123903 56 217 1.0 6.0 0.00 0.10 0.04 72 1016.1
20260508123402 55 217 3.0 7.0 0.00 0.10 0.04 70 1016.1
20260508122904 54 214 2.0 3.0 0.01 0.10 0.04 76 1016.1
20260508122403 54 214 3.0 6.0 0.01 0.10 0.04 77 1016.1
20260508121904 53 214 3.0 6.0 0.02 0.10 0.04 78 1016.2
20260508121404 53 214 2.0 9.0 0.02 0.10 0.04 78 1016.1
20260508120403 52 215 3.0 8.0 0.02 0.10 0.04 83 1016.2
20260508115402 51 215 1.0 6.0 0.02 0.10 0.04 84 1016.1
20260508114904 50 214 5.0 9.0 0.03 0.10 0.04 83 1016.1
20260508114403 50 215 3.0 8.0 0.03 0.10 0.04 84 1016.1
20260508113905 50 215 4.0 9.0 0.03 0.10 0.04 84 1016.0
20260508113403 50 219 2.0 7.0 0.03 0.10 0.04 83 1016.0
20260508112904 50 219 5.0 8.0 0.02 0.09 0.03 82 1015.9
20260508112403 51 221 5.0 8.0 0.02 0.09 0.03 82 1015.9
20260508111904 51 261 0.0 10.0 0.02 0.09 0.02 81 1015.9
20260508111404 52 221 3.0 8.0 0.02 0.09 0.02 81 1015.9
20260508110903 51 214 5.0 8.0 0.01 0.08 0.02 80 1015.7
20260508110404 51 214 2.0 6.0 0.01 0.08 0.02 78 1015.6
20260508105903 51 214 5.0 9.0 0.01 0.08 0.02 77 1015.5
20260508105403 52 214 6.0 12.0 0.01 0.08 0.02 77 1015.4
20260508104903 52 209 5.0 12.0 0.00 0.07 0.01 75 1015.3
20260508104403 52 212 6.0 9.0 0.00 0.07 0.01 75 1015.2
20260508103404 51 215 7.0 12.0 0.00 0.07 0.01 78 1015.0
20260508102903 51 211 6.0 10.0 0.00 0.07 0.01 78 1015.0
20260508102403 51 209 5.0 7.0 0.00 0.07 0.01 78 1015.0
20260508101902 51 208 5.0 8.0 0.00 0.07 0.01 79 1015.0
20260508101404 51 206 3.0 9.0 0.00 0.07 0.01 77 1014.9
20260508100902 51 215 7.0 13.0 0.00 0.07 0.01 75 1014.9
20260508100402 51 212 7.0 14.0 0.00 0.07 0.01 73 1014.8
20260508095903 52 207 7.0 13.0 0.00 0.07 0.01 73 1014.7
20260508095403 52 212 8.0 13.0 0.00 0.07 0.01 74 1014.7
20260508094902 52 216 7.0 12.0 0.00 0.07 0.01 74 1014.6
20260508094402 52 213 5.0 12.0 0.00 0.07 0.01 77 1014.5
20260508093903 52 213 7.0 12.0 0.00 0.07 0.01 76 1014.4